Voltar ao catálogo

COSMOS 2251 DEB

AtivoLEO
NORAD 34325·DEBRIS·🇷🇺 Russia

Lançado Jun 16, 1993 de Plesetsk Cosmodrome

Loading…

Próximas Passagens (próximas 24 horas)

TLE

AtualizadoSource: Space-Track

Época: Sep 14, 2026, 10:46 UTC

1 34325U 93036NX  26257.44921892  .00001250  00000-0  66347-3 0  9996
2 34325  73.8687  66.4297 0191082  32.0813 350.2127 14.05680862893886

Acompanhe COSMOS 2251 DEB em tempo real com AllMySat

Download on the App Store